Погода в Староверческой

Россия / Кировская область     59°37′35″N   48°37′16″E
темп.,
°C
ветер,
м/с
пор.,
м/с
влажн.,
%
обл.,
%
осадки,
мм/ч
давл.,
гПа
погр.,
м
25 февраля, чт
чт2500:00−22ю259891 0.0 1031120
03:00−23ю399792 0.0 1029216
06:00−22ююв4109598 0.0 1025270
09:00−21ююв5109499 0.0 1023326
12:00−17ююв51192100 0.0 1020448
15:00−16ююв51193100 0.3 1019539
18:00−18ююв41093100 0.1 1018527
21:00−19ююв31094100 0.1 1018456
26 февраля, пт
пт2600:00−19ююв3895100 0.0 1018398
03:00−20ююв3996100 0.0 1018339
06:00−21ююв3996100 0.0 1017340
09:00−20ююв4996100 0.0 1016364
12:00−17ююв4993100 0.0 1014521
15:00−16ююв51192100 0.1 1011595
18:00−17юв51392100 0.1 1008621
21:00−17юв51391100 0.1 1007606
27 февраля, сб
сб2700:00−18юв51195100 0.3 1005592
03:00−18вюв41093100 0.9 1004578
06:00−17вюв4996100 0.3 1004606
09:00−16в4893100 0.8 1005607
12:00−13в4789100 0.1 1006713
15:00−13всв4690100 0.2 1007714
18:00−16св2397100 0.1 100882
21:00−17св249898 0.1 101094
28 февраля, вс
вс2800:00−19св239986 0.0 101148
03:00−21ссв2410075 0.0 101380
06:00−23ссв239962 0.0 101363
09:00−20св259740 0.0 1015247
12:00−16ссв359270 0.0 1015427
15:00−14ссв359285 0.0 1016484
18:00−19ссв239785 0.0 101720
21:00−21ссв1110043 0.0 101920
1 марта, пн
пн100:00−22сз11990 0.0 102020
03:00−22зсз12990 0.0 102120
06:00−21зюз22990 0.0 102120
09:00−16юз24961 0.0 1020157
12:00−10юз369676 0.0 1018279
15:00−8юз599489 0.1 1015427
18:00−8юз51294100 0.1 1012464
21:00−4юз51295100 1.3 1008625